Tracking 31027 objects as of 19-Jul-2025
HD Live streaming from Space Station
objects crossing your sky now

FENGYUN 1C DEB

Track FENGYUN 1C DEB now!
10-day predictions


NORAD ID: 32114
Int'l Code: 1999-025CRG
Perigee: 629.8 km
Apogee: 701.1 km
Inclination: 99.9 °
Period: 97.9 minutes
Semi major axis: 7036 km
RCS: 0.0153 m2 (small)
Launch date: May 10, 1999
Source: People's Republic of China (PRC)
Launch site: Taiyaun Space Center, China (TSC)

Note: This is SATELLITE DEBRIS
Your satellite tracking list
FENGYUN 1C DEB
Track 1 satellite(s)




NASA's NSSDC Master Catalog

Two Line Element Set (TLE):
1 32114U 99025CRG 25193.43863666  .00009006  00000-0  14532-2 0  9990
2 32114  99.9286 276.5940 0050702  90.4416 270.2594 14.70864207947599
Source of the keplerian elements: AFSPC